Regional Weather Roundup
Issued by NWS

Home | Current Version | Previous Version | Graphics & Text | Print | Product List | Glossary On
Versions: 1 2 3 4 5 6 7 8 9 10 11 12 13 14 15 16 17 18 19 20 21 22 23 24 25 26 27 28 29 30 31 32 33 34 35 36 37 38 39 40 41 42 43 44 45 46 47 48 49
000
ASUS45 KCYS 302310
RWRWY

WYOMING REGIONAL WEATHER ROUNDUP
NATIONAL WEATHER SERVICE CHEYENNE WY
500 PM MDT TUE SEP 30 2014

NOTE:  "FAIR" INDICATES FEW OR NO CLOUDS BELOW 12,000 FEET
WITH NO SIGNIFICANT WEATHER AND/OR OBSTRUCTIONS TO VISIBILITY.

WYZ001-010000-
YELLOWSTONE NATIONAL PARK

CITY           SKY/WX    TMP DP  RH WIND       PRES   REMARKS
LK YELLOWSTONE   N/A     42  36  79 VRB3      29.91R
W YELLOWSTONE  NOT AVBL

$$
WYZ002>013-054>058-071-098>099-010000-
NORTHERN WYOMING

CITY           SKY/WX    TMP DP  RH WIND       PRES   REMARKS
JACKSON        PTSUNNY   46  45  93 S8        29.88S
CODY           PTSUNNY   57  43  58 W6        29.74S
GREYBULL       LGT RAIN  59  46  62 N9        29.71R
WORLAND        PTSUNNY   64  41  42 E5        29.71F
SHERIDAN       CLOUDY    59  43  55 N25       29.68R
BUFFALO        CLOUDY    55  42  61 N18G28    29.72R
GILLETTE       CLOUDY    58  44  60 W13       29.67R
HULETT         MOCLDY    55  45  67 W13       29.65
NEWCASTLE      FAIR      59  43  55 NW12G20   29.68

$$
WYZ014>020-022>026-101>103-010000-
CENTRAL WYOMING

CITY           SKY/WX    TMP DP  RH WIND       PRES   REMARKS
BIG PINEY      PTSUNNY   51  37  58 W10       29.92F
PINEDALE       MOCLDY    46  41  81 NW5       29.92F
DUBOIS         MOCLDY    50  34  53 NW13G22   29.84S
LANDER         PTSUNNY   62  36  37 E6        29.75S
RIVERTON       PTSUNNY   63  36  36 NW15      29.76S
CASPER         CLOUDY    60  34  37 W15G23    29.75R
DOUGLAS        LGT RAIN  56  43  61 W9        29.74R

$$
WYZ021-027>030-104>119-010000-
SOUTHERN WYOMING

CITY           SKY/WX    TMP DP  RH WIND       PRES   REMARKS
EVANSTON       CLOUDY    48  39  71 W18       29.98F
KEMMERER       CLOUDY    46  39  76 SW16G23   29.96S
FORT BRIDGER   MOCLDY    55  42  61 W21G28    29.99S
ROCK SPRINGS   LGT RAIN  50  38  63 W22G30    29.92S
DIXON          CLOUDY    50  41  71 SW9       29.97S
RAWLINS        LGT RAIN  45  40  82 W25       29.89R
SARATOGA       MOCLDY    48  37  66 W17G24    29.92S
LARAMIE        PTSUNNY   48  35  60 W20       29.87F
CHEYENNE       CLOUDY    56  36  47 W20G25    29.84R
TORRINGTON     CLOUDY    63  43  48 SW17      29.70S
PINE BLUFFS    FAIR      63  36  36 W14G20    29.80S

$$



USA.gov is the U.S. government's official web portal to all federal, state and local government web resources and services.